Weather History for KPZQ - January, 2014

Change the Weather History Date:

Thursday, January 16, 2014

  Actual Average (KAPN) Record (KAPN)
Temperature  
Mean Temperature 18 °F 19 °F  
Max Temperature 24 °F 27 °F 51 °F (1973)
Min Temperature 14 °F 11 °F -28 °F (1994)
Degree Days  
Heating Degree Days 46 46  
Month to date heating degree days 725  
Since 1 July heating degree days 3786  
Moisture  
Dew Point 17 °F    
Average Humidity 87    
Maximum Humidity 94    
Minimum Humidity 81    
Precipitation  
Precipitation 0.00 in 0.06 in 0.33 in (1924)
Month to date precipitation 0.92  
Year to date precipitation 0.92  
Snow  
Snow 0.00 in 0.70 in 3.90 in (1924)
Month to date snowfall 11.2  
Since 1 July snowfall 38.5  
Snow Depth -    
Sea Level Pressure  
Sea Level Pressure 29.64 in    
Wind  
Wind Speed 10 mph (SSE)    
Max Wind Speed 16 mph    
Max Gust Speed 22 mph    
Visibility 5 miles    
Events Snow    
T = Trace of Precipitation, MM = Missing Value Source: NWS Daily Summary

Daily Weather History Graph

Daily Weather History Graph

Search for Another Location

Airport or City:

Trip Planner

Search our weather history database for the weather conditions in past years. The results will help you decide how hot, cold, wet, or windy it might be!

Date:

Astronomy

Jan. 16, 2014 Rise Set
Actual Time 8:10 AM EST 5:19 PM EST
Civil Twilight 7:37 AM EST 5:52 PM EST
Nautical Twilight 7:01 AM EST 6:29 PM EST
Astronomical Twilight 6:25 AM EST 7:04 PM EST
Moon 6:15 PM EST (1/16) 7:59 AM EST (1/16)
Length of Visible Light 10h 15m
Length of Day
9h 09m
Full, 100% of the Moon is Illuminated
Jan 16
Full
Jan 24
Last Quarter
Jan 30
New
Feb 6
First Quarter
Feb 14
Full

Hourly Weather History & Observations

Time (EST) Temp. Windchill Dew Point Humidity Pressure Visibility Wind Dir Wind Speed Gust Speed Precip Events Conditions
12:15 AM 14.9 °F 3.1 °F 10.4 °F 82% 29.79 in 10.0 mi South 9.2 mph - N/A   Mostly Cloudy
12:35 AM 14.9 °F 3.1 °F 10.4 °F 82% 29.78 in 10.0 mi South 9.2 mph - N/A   Scattered Clouds
12:55 AM 14.7 °F 3.8 °F 10.2 °F 82% 29.77 in 10.0 mi South 8.1 mph - N/A   Scattered Clouds
1:15 AM 14.9 °F 5.0 °F 10.6 °F 83% 29.76 in 10.0 mi South 6.9 mph - N/A   Mostly Cloudy
1:35 AM 15.8 °F 6.1 °F 11.3 °F 82% 29.76 in 10.0 mi South 6.9 mph - N/A   Overcast
1:54 AM 15.8 °F 6.1 °F 11.3 °F 82% 29.76 in 10.0 mi South 6.9 mph - N/A   Overcast
2:15 AM 16.3 °F 7.8 °F 12.0 °F 83% 29.75 in 10.0 mi South 5.8 mph - N/A Snow Light Snow
2:35 AM 17.1 °F 7.6 °F 12.6 °F 82% 29.74 in 10.0 mi South 6.9 mph - N/A   Overcast
2:55 AM 17.6 °F 5.7 °F 13.1 °F 83% 29.74 in 10.0 mi South 10.4 mph - N/A   Overcast
3:15 AM 18.1 °F 6.3 °F 13.5 °F 82% 29.72 in 10.0 mi SSE 10.4 mph - N/A   Overcast
3:34 AM 18.5 °F 7.5 °F 13.8 °F 82% 29.71 in 10.0 mi South 9.2 mph - N/A   Overcast
3:55 AM 18.9 °F 8.0 °F 14.0 °F 81% 29.71 in 10.0 mi South 9.2 mph - N/A   Overcast
4:14 AM 19.2 °F 7.0 °F 14.4 °F 81% 29.69 in 10.0 mi South 11.5 mph 16.1 mph N/A   Overcast
4:35 AM 19.4 °F 7.2 °F 14.4 °F 81% 29.68 in 10.0 mi South 11.5 mph 18.4 mph N/A   Overcast
4:55 AM 19.4 °F 7.9 °F 14.5 °F 81% 29.68 in 10.0 mi South 10.4 mph - N/A   Overcast
5:15 AM 19.4 °F 7.2 °F 14.9 °F 83% 29.67 in 7.0 mi South 11.5 mph - N/A   Overcast
5:35 AM 19.2 °F 7.7 °F 15.6 °F 86% 29.66 in 1.8 mi South 10.4 mph - N/A Snow Light Snow
5:55 AM 19.0 °F 8.2 °F 16.2 °F 89% 29.65 in 4.0 mi SSE 9.2 mph - N/A Snow Light Snow
6:15 AM 19.0 °F 6.8 °F 16.2 °F 89% 29.64 in 2.0 mi SE 11.5 mph - N/A Snow Light Snow
6:35 AM 18.5 °F 6.1 °F 16.3 °F 91% 29.64 in 1.2 mi SSE 11.5 mph 17.3 mph N/A Snow Light Snow
6:55 AM 18.3 °F 5.2 °F 16.2 °F 91% 29.64 in 1.8 mi SSE 12.7 mph 18.4 mph N/A Snow Light Snow
7:15 AM 18.0 °F 5.4 °F 15.6 °F 91% 29.63 in 1.8 mi SSE 11.5 mph 20.7 mph N/A Snow Light Snow
7:35 AM 17.6 °F 4.3 °F 15.1 °F 90% 29.63 in 2.0 mi South 12.7 mph 20.7 mph N/A Snow Light Snow
7:54 AM 17.6 °F 3.2 °F 14.9 °F 89% 29.63 in 2.0 mi South 15.0 mph 20.7 mph N/A Snow Light Snow
8:15 AM 17.2 °F 3.3 °F 14.7 °F 90% 29.63 in 2.0 mi SSE 13.8 mph 17.3 mph N/A Snow Light Snow
8:35 AM 16.7 °F 1.5 °F 14.4 °F 91% 29.63 in 0.8 mi SSE 16.1 mph 19.6 mph N/A Snow Light Snow
8:55 AM 16.7 °F 3.8 °F 14.4 °F 91% 29.63 in 1.5 mi SSE 11.5 mph 18.4 mph N/A Snow Light Snow
9:15 AM 17.1 °F 3.0 °F 14.2 °F 88% 29.63 in 5.0 mi South 13.8 mph 18.4 mph N/A   Overcast
9:34 AM 17.4 °F 2.9 °F 14.0 °F 86% 29.63 in 4.0 mi South 15.0 mph 19.6 mph N/A Snow Light Snow
9:55 AM 17.6 °F 3.7 °F 14.4 °F 87% 29.64 in 2.5 mi South 13.8 mph - N/A Snow Light Snow
10:15 AM 18.0 °F 3.1 °F 14.7 °F 87% 29.63 in 2.5 mi South 16.1 mph - N/A Snow Light Snow
10:34 AM 18.3 °F 4.1 °F 14.9 °F 86% 29.64 in 3.0 mi South 15.0 mph - N/A Snow Light Snow
10:55 AM 18.7 °F 4.6 °F 14.9 °F 85% 29.63 in 7.0 mi SSE 15.0 mph 19.6 mph N/A   Overcast
11:14 AM 19.0 °F 5.0 °F 14.9 °F 84% 29.63 in 4.0 mi SSE 15.0 mph 21.9 mph N/A Snow Light Snow
11:35 AM 19.2 °F 5.3 °F 15.4 °F 85% 29.62 in 4.0 mi SSE 15.0 mph 21.9 mph N/A Snow Light Snow
11:55 AM 19.2 °F 5.8 °F 15.8 °F 87% 29.61 in 3.0 mi SSE 13.8 mph 18.4 mph N/A Snow Light Snow
12:15 PM 19.4 °F 6.6 °F 16.2 °F 87% 29.61 in 2.5 mi SSE 12.7 mph 18.4 mph N/A Snow Light Snow
12:35 PM 19.4 °F 6.0 °F 16.3 °F 88% 29.60 in 3.0 mi SSE 13.8 mph 18.4 mph N/A Snow Light Snow
12:54 PM 19.9 °F 5.7 °F 16.5 °F 87% 29.60 in 3.0 mi SSE 16.1 mph 21.9 mph N/A Snow Light Snow
1:15 PM 20.3 °F 8.3 °F 16.7 °F 86% 29.59 in 3.0 mi SSE 11.5 mph - N/A Snow Light Snow
1:35 PM 20.7 °F 7.1 °F 16.7 °F 85% 29.59 in 4.0 mi South 15.0 mph 19.6 mph N/A Snow Light Snow
1:55 PM 20.8 °F 7.9 °F 17.1 °F 85% 29.58 in 4.0 mi SSE 13.8 mph - N/A Snow Light Snow
2:15 PM 21.0 °F 7.6 °F 17.1 °F 85% 29.58 in 4.0 mi South 15.0 mph 20.7 mph N/A Snow Light Snow
2:34 PM 21.2 °F 7.3 °F 17.2 °F 85% 29.58 in 4.0 mi South 16.1 mph 21.9 mph N/A Snow Light Snow
2:55 PM 21.4 °F 9.1 °F 17.2 °F 84% 29.57 in 4.0 mi South 12.7 mph - N/A Snow Light Snow
3:15 PM 21.7 °F 9.6 °F 17.8 °F 85% 29.57 in 4.0 mi SSE 12.7 mph - N/A Snow Light Snow
3:35 PM 21.9 °F 9.8 °F 18.1 °F 85% 29.57 in 5.0 mi SSE 12.7 mph 20.7 mph N/A Snow Light Snow
3:55 PM 22.1 °F 10.0 °F 18.3 °F 85% 29.58 in 7.0 mi SSE 12.7 mph 19.6 mph N/A Snow Light Snow
4:15 PM 22.1 °F 10.6 °F 18.5 °F 86% 29.58 in 10.0 mi SSE 11.5 mph - N/A   Overcast
4:35 PM 22.3 °F 13.0 °F 18.7 °F 86% 29.58 in 4.0 mi SSE 8.1 mph - N/A Snow Light Snow
4:55 PM 22.1 °F 11.3 °F 19.0 °F 88% 29.59 in 1.5 mi SSE 10.4 mph - N/A Snow Light Snow
5:15 PM 22.1 °F 12.0 °F 19.4 °F 89% 29.59 in 0.8 mi SSE 9.2 mph - N/A Snow Light Snow
5:35 PM 21.9 °F 13.4 °F 19.9 °F 92% 29.60 in 2.0 mi SSE 6.9 mph - N/A Snow Light Snow
5:55 PM 21.7 °F 12.3 °F 20.1 °F 93% 29.60 in 1.8 mi SSE 8.1 mph - N/A Snow Light Snow
6:15 PM 21.7 °F 11.5 °F 20.3 °F 94% 29.60 in 2.5 mi SSE 9.2 mph - N/A Snow Light Snow
6:35 PM 21.9 °F 11.0 °F 20.3 °F 93% 29.60 in 3.0 mi SSE 10.4 mph - N/A Snow Light Snow
6:55 PM 22.1 °F 11.3 °F 20.3 °F 93% 29.60 in 3.0 mi SSE 10.4 mph - N/A Snow Light Snow
7:15 PM 22.1 °F 11.3 °F 20.3 °F 93% 29.60 in 4.0 mi SSE 10.4 mph - N/A Snow Light Snow
7:35 PM 22.5 °F 13.2 °F 20.5 °F 92% 29.61 in 5.0 mi SSE 8.1 mph - N/A Snow Light Snow
7:55 PM 22.6 °F 13.4 °F 20.3 °F 91% 29.61 in 7.0 mi SSE 8.1 mph - N/A Snow Light Snow
8:14 PM 22.8 °F 12.9 °F 20.7 °F 91% 29.61 in 5.0 mi SSE 9.2 mph - N/A Snow Light Snow
8:35 PM 23.0 °F 13.9 °F 20.8 °F 91% 29.60 in 5.0 mi SSE 8.1 mph - N/A Snow Light Snow
8:55 PM 23.2 °F 14.1 °F 21.0 °F 91% 29.61 in 5.0 mi SSE 8.1 mph - N/A Snow Light Snow
9:15 PM 23.4 °F 14.3 °F 21.2 °F 91% 29.61 in 4.0 mi SSE 8.1 mph - N/A Snow Light Snow
9:35 PM 23.0 °F 13.9 °F 21.2 °F 93% 29.61 in 4.0 mi South 8.1 mph - N/A Snow Light Snow
9:55 PM 23.4 °F 14.3 °F 21.6 °F 93% 29.61 in 3.0 mi SSE 8.1 mph - N/A Snow Light Snow
10:15 PM 23.4 °F 14.3 °F 21.7 °F 94% 29.61 in 4.0 mi SSE 8.1 mph - N/A Snow Light Snow
10:35 PM 23.0 °F 14.7 °F 21.2 °F 93% 29.61 in 5.0 mi SSE 6.9 mph - N/A Snow Light Snow
10:55 PM 23.5 °F 14.5 °F 21.7 °F 93% 29.60 in 10.0 mi SSE 8.1 mph - N/A Snow Light Snow
11:15 PM 23.9 °F 15.8 °F 21.9 °F 92% 29.60 in 10.0 mi SSE 6.9 mph - N/A   Overcast
11:35 PM 23.9 °F 16.8 °F 22.1 °F 93% 29.60 in 10.0 mi SSE 5.8 mph - N/A   Overcast
11:55 PM 24.3 °F 16.3 °F 22.1 °F 91% 29.60 in 10.0 mi SSE 6.9 mph - N/A   Overcast